Time,TemperatureF,DewpointF,PressureIn,WindDirection,WindDirectionDegrees,WindSpeedMPH,WindSpeedGustMPH,Humidity,HourlyPrecipIn,Conditions,Clouds,dailyrainin,SolarRadiationWatts/m^2,SoftwareType,DateUTC
2013-01-09 00:00:00,41.6,38.6,30.14,ESE,103,0.0,1.1,89,0.00,,,0.00,0.0,WeatherDisplay:10.37,2013-01-09 08:00:00,
2013-01-09 00:05:00,41.4,38.4,30.14,ESE,104,0.0,0.0,89,0.00,,,0.00,0.0,WeatherDisplay:10.37,2013-01-09 08:05:00,
2013-01-09 00:10:00,41.3,38.3,30.14,ESE,104,1.0,1.1,89,0.00,,,0.00,0.0,WeatherDisplay:10.37,2013-01-09 08:10:00,
2013-01-09 00:15:00,41.4,38.4,30.13,ESE,104,1.0,2.3,89,0.00,,,0.00,0.0,WeatherDisplay:10.37,2013-01-09 08:15:00,
2013-01-09 00:20:00,41.5,38.5,30.14,ESE,104,0.0,0.0,89,0.00,,,0.00,0.0,WeatherDisplay:10.37,2013-01-09 08:20:00,
2013-01-09 00:25:00,41.5,38.5,30.14,ESE,104,0.0,0.0,89,0.00,,,0.00,0.0,WeatherDisplay:10.37,2013-01-09 08:25:00,
2013-01-09 00:30:00,41.8,38.8,30.13,ESE,104,0.0,0.0,89,0.00,,,0.00,0.0,WeatherDisplay:10.37,2013-01-09 08:30:00,
2013-01-09 00:35:00,41.8,38.8,30.13,ESE,104,0.1,0.0,89,0.00,,,0.00,0.0,WeatherDisplay:10.37,2013-01-09 08:35:00,
2013-01-09 00:40:00,41.8,38.8,30.13,ESE,104,0.0,0.0,89,0.00,,,0.00,0.0,WeatherDisplay:10.37,2013-01-09 08:40:00,
2013-01-09 00:45:00,41.7,38.7,30.13,ESE,104,0.7,1.1,89,0.00,,,0.00,0.0,WeatherDisplay:10.37,2013-01-09 08:45:00,
2013-01-09 00:50:00,41.6,38.6,30.13,ESE,104,0.0,1.1,89,0.00,,,0.00,0.0,WeatherDisplay:10.37,2013-01-09 08:50:00,
2013-01-09 00:55:00,41.6,38.6,30.13,ESE,103,0.0,0.0,89,0.00,,,0.00,0.0,WeatherDisplay:10.37,2013-01-09 08:55:00,
2013-01-09 01:00:00,41.6,38.6,30.13,ESE,104,0.1,0.0,89,0.00,,,0.00,0.0,WeatherDisplay:10.37,2013-01-09 09:00:00,
2013-01-09 01:05:00,41.4,38.4,30.14,ESE,104,0.0,0.0,89,0.00,,,0.00,0.0,WeatherDisplay:10.37,2013-01-09 09:05:00,
2013-01-09 01:10:00,41.5,38.5,30.13,ESE,104,0.0,0.0,89,0.00,,,0.00,0.0,WeatherDisplay:10.37,2013-01-09 09:10:00,
2013-01-09 01:15:00,41.5,38.5,30.12,ESE,103,0.0,0.0,89,0.00,,,0.00,0.0,WeatherDisplay:10.37,2013-01-09 09:15:00,
2013-01-09 01:20:00,41.3,38.3,30.12,ESE,106,2.9,4.6,89,0.00,,,0.00,0.0,WeatherDisplay:10.37,2013-01-09 09:20:00,
2013-01-09 01:25:00,41.5,38.8,30.13,ESE,106,0.4,2.3,90,0.00,,,0.00,0.0,WeatherDisplay:10.37,2013-01-09 09:25:00,
2013-01-09 01:30:00,41.6,38.9,30.12,ESE,106,0.6,2.3,90,0.00,,,0.00,0.0,WeatherDisplay:10.37,2013-01-09 09:30:00,
2013-01-09 01:35:00,41.7,39.0,30.12,ESE,106,2.6,4.6,90,0.01,RA,,0.01,0.0,WeatherDisplay:10.37,2013-01-09 09:35:00,
2013-01-09 01:40:00,41.8,39.1,30.13,ESE,106,0.0,0.0,90,0.01,RA,,0.01,0.0,WeatherDisplay:10.37,2013-01-09 09:40:00,
2013-01-09 01:45:00,41.7,38.7,30.13,ESE,106,0.0,0.0,89,0.01,,,0.01,0.0,WeatherDisplay:10.37,2013-01-09 09:45:00,
2013-01-09 01:50:00,41.8,39.1,30.13,ESE,106,1.7,3.5,90,0.01,,,0.01,0.0,WeatherDisplay:10.37,2013-01-09 09:50:00,
2013-01-09 01:55:00,41.8,38.8,30.13,ESE,106,0.1,1.1,89,0.01,,,0.01,0.0,WeatherDisplay:10.37,2013-01-09 09:55:00,
2013-01-09 02:00:00,41.8,38.8,30.13,ESE,106,0.2,0.0,89,0.01,,,0.01,0.0,WeatherDisplay:10.37,2013-01-09 10:00:00,
2013-01-09 02:05:00,41.7,39.0,30.13,ESE,106,0.0,0.0,90,0.01,,,0.01,0.0,WeatherDisplay:10.37,2013-01-09 10:05:00,
2013-01-09 02:10:00,41.7,39.0,30.14,ESE,106,0.0,0.0,90,0.01,,,0.01,0.0,WeatherDisplay:10.37,2013-01-09 10:10:00,
2013-01-09 02:15:00,41.7,39.0,30.13,ESE,106,0.0,0.0,90,0.01,,,0.01,0.0,WeatherDisplay:10.37,2013-01-09 10:15:00,
2013-01-09 02:20:00,41.8,39.1,30.13,ESE,106,0.0,0.0,90,0.01,,,0.01,0.0,WeatherDisplay:10.37,2013-01-09 10:20:00,
2013-01-09 02:25:00,41.9,39.2,30.12,ESE,106,0.0,0.0,90,0.01,,,0.01,0.0,WeatherDisplay:10.37,2013-01-09 10:25:00,
2013-01-09 02:30:00,41.7,39.0,30.12,ESE,106,0.0,0.0,90,0.01,,,0.01,0.0,WeatherDisplay:10.37,2013-01-09 10:30:00,
2013-01-09 02:35:00,41.6,38.9,30.13,ESE,106,0.1,1.1,90,0.00,,,0.01,0.0,WeatherDisplay:10.37,2013-01-09 10:35:00,
2013-01-09 02:40:00,41.6,38.9,30.12,ESE,106,0.9,3.5,90,0.00,,,0.01,0.0,WeatherDisplay:10.37,2013-01-09 10:40:00,
2013-01-09 02:45:00,41.5,38.8,30.12,ESE,105,0.5,1.1,90,0.00,,,0.01,0.0,WeatherDisplay:10.37,2013-01-09 10:45:00,
2013-01-09 02:50:00,41.3,38.3,30.11,ESE,105,0.0,3.5,89,0.00,,,0.01,0.0,WeatherDisplay:10.37,2013-01-09 10:50:00,
2013-01-09 02:55:00,41.5,38.8,30.12,ESE,105,2.6,4.0,90,0.00,,,0.01,0.0,WeatherDisplay:10.37,2013-01-09 10:55:00,
2013-01-09 03:00:00,42.2,39.5,30.12,ESE,105,0.0,1.1,90,0.00,,,0.01,0.0,WeatherDisplay:10.37,2013-01-09 11:00:00,
2013-01-09 03:05:00,41.9,39.2,30.12,ESE,105,0.2,1.1,90,0.00,,,0.01,0.0,WeatherDisplay:10.37,2013-01-09 11:05:00,
2013-01-09 03:10:00,41.8,39.1,30.12,ESE,105,0.5,0.0,90,0.00,,,0.01,0.0,WeatherDisplay:10.37,2013-01-09 11:10:00,
2013-01-09 03:15:00,42.0,39.3,30.11,ESE,105,0.1,0.0,90,0.00,,,0.01,0.0,WeatherDisplay:10.37,2013-01-09 11:15:00,
2013-01-09 03:20:00,42.0,39.3,30.12,ESE,105,0.0,0.0,90,0.00,,,0.01,0.0,WeatherDisplay:10.37,2013-01-09 11:20:00,
2013-01-09 03:25:00,41.7,38.7,30.12,ESE,105,0.5,1.1,89,0.00,,,0.01,0.0,WeatherDisplay:10.37,2013-01-09 11:25:00,
2013-01-09 03:30:00,41.6,38.9,30.12,ESE,105,0.3,1.1,90,0.00,,,0.01,0.0,WeatherDisplay:10.37,2013-01-09 11:30:00,
2013-01-09 03:35:00,41.4,38.7,30.12,ESE,105,0.0,1.1,90,0.00,,,0.01,0.0,WeatherDisplay:10.37,2013-01-09 11:35:00,
2013-01-09 03:40:00,41.1,38.1,30.11,ESE,105,1.3,3.5,89,0.00,,,0.01,0.0,WeatherDisplay:10.37,2013-01-09 11:40:00,
2013-01-09 03:45:00,41.1,38.4,30.11,ESE,105,0.0,0.0,90,0.00,,,0.01,0.0,WeatherDisplay:10.37,2013-01-09 11:45:00,
2013-01-09 03:50:00,41.1,38.4,30.11,ESE,105,0.0,0.0,90,0.00,,,0.01,0.0,WeatherDisplay:10.37,2013-01-09 11:50:00,
2013-01-09 03:55:00,41.1,38.4,30.11,ESE,105,1.6,3.5,90,0.00,,,0.01,0.0,WeatherDisplay:10.37,2013-01-09 11:55:00,
2013-01-09 04:00:00,40.9,38.2,30.11,ESE,105,0.2,1.1,90,0.00,,,0.01,0.0,WeatherDisplay:10.37,2013-01-09 12:00:00,
2013-01-09 04:05:00,41.0,38.3,30.11,ESE,105,1.1,1.1,90,0.00,,,0.01,0.0,WeatherDisplay:10.37,2013-01-09 12:05:00,
2013-01-09 04:10:00,40.9,38.2,30.10,ESE,105,0.0,2.3,90,0.00,,,0.01,0.0,WeatherDisplay:10.37,2013-01-09 12:10:00,
2013-01-09 04:15:00,41.3,38.6,30.11,ESE,105,0.0,0.0,90,0.00,,,0.01,0.0,WeatherDisplay:10.37,2013-01-09 12:15:00,
2013-01-09 04:20:00,41.0,38.3,30.11,ESE,105,0.0,0.0,90,0.00,,,0.01,0.0,WeatherDisplay:10.37,2013-01-09 12:20:00,
2013-01-09 04:25:00,40.8,37.8,30.10,ESE,105,0.0,0.0,89,0.00,,,0.01,0.0,WeatherDisplay:10.37,2013-01-09 12:25:00,
2013-01-09 04:30:00,40.9,38.2,30.10,ESE,105,0.0,0.0,90,0.00,,,0.01,0.0,WeatherDisplay:10.37,2013-01-09 12:30:00,
2013-01-09 04:35:00,41.0,38.3,30.10,ESE,105,0.0,0.0,90,0.00,,,0.01,0.0,WeatherDisplay:10.37,2013-01-09 12:35:00,
2013-01-09 04:40:00,41.1,38.4,30.10,ESE,105,0.0,0.0,90,0.00,,,0.01,0.0,WeatherDisplay:10.37,2013-01-09 12:40:00,
2013-01-09 04:45:00,41.2,38.5,30.09,ESE,105,0.0,0.0,90,0.00,,,0.01,0.0,WeatherDisplay:10.37,2013-01-09 12:45:00,
2013-01-09 04:50:00,41.4,38.7,30.10,ESE,105,0.0,0.0,90,0.00,,,0.01,0.0,WeatherDisplay:10.37,2013-01-09 12:50:00,
2013-01-09 04:55:00,41.0,38.3,30.09,ESE,105,0.0,0.0,90,0.00,,,0.01,0.0,WeatherDisplay:10.37,2013-01-09 12:55:00,
2013-01-09 05:00:00,40.7,37.7,30.09,ESE,105,0.0,0.0,89,0.00,,,0.01,0.0,WeatherDisplay:10.37,2013-01-09 13:00:00,
2013-01-09 05:05:00,40.4,37.7,30.09,ESE,105,0.0,0.0,90,0.00,,,0.01,0.0,WeatherDisplay:10.37,2013-01-09 13:05:00,
2013-01-09 05:10:00,40.3,37.6,30.10,ESE,105,0.0,0.0,90,0.00,,,0.01,0.0,WeatherDisplay:10.37,2013-01-09 13:10:00,
2013-01-09 05:15:00,40.4,37.7,30.10,ESE,105,0.0,0.0,90,0.00,,,0.01,0.0,WeatherDisplay:10.37,2013-01-09 13:15:00,
2013-01-09 05:20:00,40.5,37.8,30.10,ESE,105,0.7,3.5,90,0.00,,,0.01,0.0,WeatherDisplay:10.37,2013-01-09 13:20:00,
2013-01-09 05:25:00,40.7,38.0,30.10,ESE,105,0.0,0.0,90,0.00,,,0.01,0.0,WeatherDisplay:10.37,2013-01-09 13:25:00,
2013-01-09 05:30:00,40.4,37.7,30.10,ESE,105,0.0,0.0,90,0.00,,,0.01,0.0,WeatherDisplay:10.37,2013-01-09 13:30:00,
2013-01-09 05:35:00,40.5,37.8,30.10,ESE,105,0.0,0.0,90,0.00,,,0.01,0.0,WeatherDisplay:10.37,2013-01-09 13:35:00,
2013-01-09 05:40:00,40.6,37.9,30.10,ESE,105,1.3,2.3,90,0.00,,,0.01,0.0,WeatherDisplay:10.37,2013-01-09 13:40:00,
2013-01-09 05:45:00,40.6,37.9,30.10,ESE,105,0.0,0.0,90,0.00,,,0.01,0.0,WeatherDisplay:10.37,2013-01-09 13:45:00,
2013-01-09 05:50:00,40.5,37.8,30.10,ESE,105,0.0,0.0,90,0.00,,,0.01,0.0,WeatherDisplay:10.37,2013-01-09 13:50:00,
2013-01-09 05:55:00,40.4,37.7,30.10,ESE,105,0.0,0.0,90,0.00,,,0.01,0.0,WeatherDisplay:10.37,2013-01-09 13:55:00,
2013-01-09 06:00:00,40.5,37.8,30.10,ESE,105,0.0,0.0,90,0.00,,,0.01,0.0,WeatherDisplay:10.37,2013-01-09 14:00:00,
2013-01-09 06:05:00,40.6,37.9,30.10,ESE,105,0.0,0.0,90,0.00,,,0.01,0.0,WeatherDisplay:10.37,2013-01-09 14:05:00,
2013-01-09 06:10:00,40.3,37.6,30.10,ESE,105,0.0,0.0,90,0.00,,,0.01,0.0,WeatherDisplay:10.37,2013-01-09 14:10:00,
2013-01-09 06:15:00,40.3,37.6,30.09,ESE,105,0.0,0.0,90,0.00,,,0.01,0.0,WeatherDisplay:10.37,2013-01-09 14:15:00,
2013-01-09 06:20:00,40.4,37.7,30.09,ESE,105,0.0,0.0,90,0.00,,,0.01,0.0,WeatherDisplay:10.37,2013-01-09 14:20:00,
2013-01-09 06:25:00,40.5,37.8,30.09,ESE,105,0.0,0.0,90,0.00,,,0.01,0.0,WeatherDisplay:10.37,2013-01-09 14:25:00,
2013-01-09 06:30:00,40.3,37.6,30.09,ESE,105,0.0,0.0,90,0.00,,,0.01,0.0,WeatherDisplay:10.37,2013-01-09 14:30:00,
2013-01-09 06:35:00,40.3,37.6,30.09,ESE,105,0.0,0.0,90,0.00,,,0.01,0.0,WeatherDisplay:10.37,2013-01-09 14:35:00,
2013-01-09 06:40:00,40.2,37.5,30.09,ESE,105,0.0,0.0,90,0.00,,,0.01,0.0,WeatherDisplay:10.37,2013-01-09 14:40:00,
2013-01-09 06:45:00,40.2,37.5,30.09,ESE,105,0.0,0.0,90,0.00,,,0.01,0.0,WeatherDisplay:10.37,2013-01-09 14:45:00,
2013-01-09 06:50:00,40.0,37.3,30.09,ESE,105,0.0,0.0,90,0.00,,,0.01,0.0,WeatherDisplay:10.37,2013-01-09 14:50:00,
2013-01-09 06:55:00,40.1,37.4,30.10,ESE,105,0.0,0.0,90,0.00,,,0.01,0.0,WeatherDisplay:10.37,2013-01-09 14:55:00,
2013-01-09 07:00:00,40.0,37.3,30.10,ESE,105,0.0,0.0,90,0.00,,,0.01,0.0,WeatherDisplay:10.37,2013-01-09 15:00:00,
2013-01-09 07:05:00,40.0,37.3,30.10,ESE,105,0.5,2.3,90,0.00,,,0.01,0.0,WeatherDisplay:10.37,2013-01-09 15:05:00,
2013-01-09 07:10:00,40.0,37.3,30.10,ESE,105,0.0,0.0,90,0.00,,,0.01,0.0,WeatherDisplay:10.37,2013-01-09 15:10:00,
2013-01-09 07:15:00,40.0,37.3,30.10,ESE,105,0.9,2.3,90,0.00,,,0.01,0.0,WeatherDisplay:10.37,2013-01-09 15:15:00,
2013-01-09 07:20:00,40.1,37.4,30.10,ESE,105,0.0,0.0,90,0.00,,,0.01,0.0,WeatherDisplay:10.37,2013-01-09 15:20:00,
2013-01-09 07:25:00,40.1,37.4,30.10,ESE,105,0.0,0.0,90,0.00,,,0.01,0.0,WeatherDisplay:10.37,2013-01-09 15:25:00,
2013-01-09 07:30:00,40.0,37.3,30.10,ESE,105,0.0,0.0,90,0.00,,,0.01,0.0,WeatherDisplay:10.37,2013-01-09 15:30:00,
2013-01-09 07:35:00,39.9,37.2,30.10,ESE,105,0.0,0.0,90,0.00,CLR,,0.01,9.0,WeatherDisplay:10.37,2013-01-09 15:35:00,
2013-01-09 07:40:00,40.0,37.3,30.10,ESE,105,0.0,0.0,90,0.00,CLR,,0.01,16.0,WeatherDisplay:10.37,2013-01-09 15:40:00,
2013-01-09 07:45:00,39.9,37.2,30.09,ESE,105,0.1,2.3,90,0.00,FEW,,0.01,23.0,WeatherDisplay:10.37,2013-01-09 15:45:00,
2013-01-09 07:50:00,39.9,37.2,30.09,ESE,105,0.0,1.1,90,0.00,FEW,,0.01,30.0,WeatherDisplay:10.37,2013-01-09 15:50:00,
2013-01-09 07:55:00,40.2,37.5,30.10,ESE,105,0.0,0.0,90,0.00,CLR,,0.01,39.0,WeatherDisplay:10.37,2013-01-09 15:55:00,
2013-01-09 08:00:00,40.3,37.6,30.10,ESE,105,0.0,0.0,90,0.00,FEW,,0.01,46.0,WeatherDisplay:10.37,2013-01-09 16:00:00,
2013-01-09 08:05:00,40.5,37.8,30.10,ESE,105,0.0,0.0,90,0.00,FEW,,0.01,53.0,WeatherDisplay:10.37,2013-01-09 16:05:00,
2013-01-09 08:11:00,40.9,38.2,30.10,ESE,105,0.0,0.0,90,0.00,SCT,,0.01,56.0,WeatherDisplay:10.37,2013-01-09 16:11:00,
2013-01-09 08:16:00,41.0,38.3,30.10,ESE,105,0.0,1.1,90,0.00,SCT,,0.01,56.0,WeatherDisplay:10.37,2013-01-09 16:16:00,
2013-01-09 08:21:00,41.1,38.4,30.10,ESE,105,0.0,0.0,90,0.00,SCT,,0.01,63.0,WeatherDisplay:10.37,2013-01-09 16:21:00,
2013-01-09 08:26:00,41.3,38.9,30.10,ESE,105,0.0,0.0,91,0.00,SCT,,0.01,65.0,WeatherDisplay:10.37,2013-01-09 16:26:00,
2013-01-09 08:31:00,41.3,38.6,30.09,ESE,105,0.3,2.3,90,0.00,SCT,,0.01,70.0,WeatherDisplay:10.37,2013-01-09 16:31:00,
2013-01-09 08:36:00,41.7,39.0,30.10,ESE,105,0.0,0.0,90,0.00,SCT,,0.01,79.0,WeatherDisplay:10.37,2013-01-09 16:36:00,
2013-01-09 08:41:00,41.9,39.5,30.10,ESE,105,0.0,0.0,91,0.00,SCT,,0.01,83.0,WeatherDisplay:10.37,2013-01-09 16:41:00,
2013-01-09 08:46:00,42.5,39.8,30.09,ESE,105,0.1,0.0,90,0.00,SCT,,0.01,86.0,WeatherDisplay:10.37,2013-01-09 16:46:00,
2013-01-09 08:51:00,42.3,39.6,30.09,ESE,105,0.0,0.0,90,0.00,SCT,,0.01,97.0,WeatherDisplay:10.37,2013-01-09 16:51:00,
2013-01-09 08:56:00,42.6,40.2,30.10,ESE,105,0.0,1.1,91,0.00,SCT,,0.01,104.0,WeatherDisplay:10.37,2013-01-09 16:56:00,
2013-01-09 09:01:00,43.1,40.4,30.09,ESE,105,0.1,0.0,90,0.00,SCT,,0.01,111.0,WeatherDisplay:10.37,2013-01-09 17:01:00,
2013-01-09 09:06:00,43.2,40.5,30.09,ESE,105,0.0,0.0,90,0.00,SCT,,0.01,113.0,WeatherDisplay:10.37,2013-01-09 17:06:00,
2013-01-09 09:11:00,43.6,40.9,30.09,ESE,105,0.0,0.0,90,0.00,SCT,,0.01,127.0,WeatherDisplay:10.37,2013-01-09 17:11:00,
2013-01-09 09:16:00,44.2,41.5,30.09,ESE,105,0.0,0.0,90,0.00,SCT,,0.01,142.0,WeatherDisplay:10.37,2013-01-09 17:16:00,
2013-01-09 09:21:00,44.7,41.9,30.10,ESE,105,0.0,0.0,90,0.00,SCT,,0.01,156.0,WeatherDisplay:10.37,2013-01-09 17:21:00,
2013-01-09 09:26:00,45.1,42.3,30.09,ESE,105,0.0,0.0,90,0.00,FEW,,0.01,188.0,WeatherDisplay:10.37,2013-01-09 17:26:00,
2013-01-09 09:31:00,45.6,42.8,30.10,ESE,105,0.0,0.0,90,0.00,FEW,,0.01,209.0,WeatherDisplay:10.37,2013-01-09 17:31:00,
2013-01-09 09:36:00,46.1,43.3,30.09,ESE,105,0.0,0.0,90,0.00,CLR,,0.01,241.0,WeatherDisplay:10.37,2013-01-09 17:36:00,
2013-01-09 09:41:00,46.1,43.0,30.09,ESE,105,0.0,0.0,89,0.00,CLR,,0.01,278.0,WeatherDisplay:10.37,2013-01-09 17:41:00,
2013-01-09 09:46:00,46.3,42.6,30.10,ESE,105,0.0,0.0,87,0.00,FEW,,0.01,204.0,WeatherDisplay:10.37,2013-01-09 17:46:00,
2013-01-09 09:51:00,47.1,43.1,30.09,ESE,105,0.0,1.1,86,0.00,SCT,,0.01,207.0,WeatherDisplay:10.37,2013-01-09 17:51:00,
2013-01-09 09:56:00,47.2,42.9,30.09,ESE,105,0.1,1.1,85,0.00,SCT,,0.01,204.0,WeatherDisplay:10.37,2013-01-09 17:56:00,
2013-01-09 10:01:00,48.1,43.8,30.09,ESE,105,0.7,1.1,85,0.00,FEW,,0.01,251.0,WeatherDisplay:10.37,2013-01-09 18:01:00,
2013-01-09 10:06:00,48.2,43.6,30.08,ESE,105,0.0,0.0,84,0.00,SCT,,0.01,185.0,WeatherDisplay:10.37,2013-01-09 18:06:00,
2013-01-09 10:11:00,48.2,43.3,30.08,ESE,105,0.0,0.0,83,0.00,SCT,,0.01,174.0,WeatherDisplay:10.37,2013-01-09 18:11:00,
2013-01-09 10:16:00,48.2,43.0,30.08,ESE,105,0.1,1.1,82,0.00,BKN,,0.01,162.0,WeatherDisplay:10.37,2013-01-09 18:16:00,
2013-01-09 10:21:00,47.8,42.6,30.08,ESE,105,0.2,1.1,82,0.00,BKN,,0.01,158.0,WeatherDisplay:10.37,2013-01-09 18:21:00,
2013-01-09 10:26:00,47.6,42.4,30.08,ESE,105,0.0,2.3,82,0.00,BKN,,0.01,169.0,WeatherDisplay:10.37,2013-01-09 18:26:00,
2013-01-09 10:31:00,47.7,42.5,30.08,ESE,105,0.0,1.1,82,0.00,SCT,,0.01,183.0,WeatherDisplay:10.37,2013-01-09 18:31:00,
2013-01-09 10:36:00,48.4,43.2,30.07,ESE,105,0.0,0.0,82,0.00,SCT,,0.01,202.0,WeatherDisplay:10.37,2013-01-09 18:36:00,
2013-01-09 10:41:00,48.7,43.1,30.07,ESE,105,0.0,0.0,81,0.00,SCT,,0.01,197.0,WeatherDisplay:10.37,2013-01-09 18:41:00,
2013-01-09 10:43:00,48.9,43.3,30.07,ESE,105,0.0,0.0,81,0.00,SCT,,0.01,190.0,WeatherDisplay:10.37,2013-01-09 18:43:00,
2013-01-09 10:44:00,49.0,43.7,30.07,ESE,105,0.0,1.1,82,0.00,BKN,,0.01,190.0,WeatherDisplay:10.37,2013-01-09 18:44:00,
2013-01-09 10:45:00,49.0,43.7,30.07,ESE,105,0.0,1.1,82,0.00,BKN,,0.01,190.0,WeatherDisplay:10.37,2013-01-09 18:45:00,
2013-01-09 10:46:00,49.1,43.5,30.07,ESE,105,0.0,1.0,81,0.00,BKN,,0.01,185.0,WeatherDisplay:10.37,2013-01-09 18:46:00,
2013-01-09 10:47:00,49.4,43.8,30.07,ESE,105,0.0,0.0,81,0.00,BKN,,0.01,186.0,WeatherDisplay:10.37,2013-01-09 18:47:00,
2013-01-09 10:48:00,49.4,43.8,30.07,ESE,105,0.8,2.3,81,0.00,BKN,,0.01,188.0,WeatherDisplay:10.37,2013-01-09 18:48:00,
2013-01-09 10:49:00,49.3,43.4,30.07,ESE,105,0.0,1.1,80,0.00,BKN,,0.01,193.0,WeatherDisplay:10.37,2013-01-09 18:49:00,
2013-01-09 10:51:00,49.4,43.8,30.07,ESE,105,0.0,0.0,81,0.00,SCT,,0.01,199.0,WeatherDisplay:10.37,2013-01-09 18:51:00,
2013-01-09 10:56:00,50.1,44.5,30.06,ESE,105,0.0,1.0,81,0.00,SCT,,0.01,274.0,WeatherDisplay:10.37,2013-01-09 18:56:00,
2013-01-09 11:01:00,50.5,44.6,30.06,ESE,105,1.5,3.5,80,0.00,SCT,,0.01,262.0,WeatherDisplay:10.37,2013-01-09 19:01:00,
2013-01-09 11:06:00,50.5,43.9,30.06,ESE,105,0.0,0.0,78,0.00,SCT,,0.01,225.0,WeatherDisplay:10.37,2013-01-09 19:06:00,
2013-01-09 11:11:00,51.0,44.4,30.05,ESE,105,0.1,1.1,78,0.00,SCT,,0.01,258.0,WeatherDisplay:10.37,2013-01-09 19:11:00,
2013-01-09 11:16:00,51.5,44.9,30.05,ESE,105,0.3,1.1,78,0.00,SCT,,0.01,292.0,WeatherDisplay:10.37,2013-01-09 19:16:00,
2013-01-09 11:21:00,51.3,44.0,30.05,ESE,105,0.5,3.5,76,0.00,SCT,,0.01,285.0,WeatherDisplay:10.37,2013-01-09 19:21:00,
2013-01-09 11:26:00,51.9,44.9,30.05,ESE,105,0.0,0.0,77,0.00,SCT,,0.01,271.0,WeatherDisplay:10.37,2013-01-09 19:26:00,
2013-01-09 11:31:00,52.1,44.8,30.04,ESE,105,0.6,2.3,76,0.00,SCT,,0.01,232.0,WeatherDisplay:10.37,2013-01-09 19:31:00,
2013-01-09 11:36:00,52.2,45.2,30.04,ESE,105,0.0,1.1,77,0.00,SCT,,0.01,221.0,WeatherDisplay:10.37,2013-01-09 19:36:00,
2013-01-09 11:41:00,52.5,45.2,30.03,ESE,105,0.0,1.1,76,0.00,BKN,,0.01,185.0,WeatherDisplay:10.37,2013-01-09 19:41:00,
2013-01-09 11:46:00,52.5,45.2,30.04,ESE,105,0.0,2.3,76,0.00,BKN,,0.01,158.0,WeatherDisplay:10.37,2013-01-09 19:46:00,
2013-01-09 11:51:00,52.3,45.0,30.03,ESE,105,0.2,1.1,76,0.00,BKN,,0.01,172.0,WeatherDisplay:10.37,2013-01-09 19:51:00,
2013-01-09 11:56:00,52.5,45.8,30.04,ESE,105,0.0,0.0,78,0.00,BKN,,0.01,183.0,WeatherDisplay:10.37,2013-01-09 19:56:00,
2013-01-09 12:01:00,52.7,46.0,30.03,ESE,105,1.7,3.5,78,0.00,BKN,,0.01,174.0,WeatherDisplay:10.37,2013-01-09 20:01:00,
2013-01-09 12:06:00,52.6,45.9,30.02,ESE,105,1.4,3.5,78,0.00,BKN,,0.01,204.0,WeatherDisplay:10.37,2013-01-09 20:06:00,
2013-01-09 12:11:00,52.5,45.8,30.02,ESE,105,0.8,2.3,78,0.00,BKN,,0.01,227.0,WeatherDisplay:10.37,2013-01-09 20:11:00,
2013-01-09 12:16:00,52.6,45.9,30.02,ESE,105,0.1,1.1,78,0.00,BKN,,0.01,218.0,WeatherDisplay:10.37,2013-01-09 20:16:00,
2013-01-09 12:21:00,53.0,46.3,30.01,ESE,105,1.3,3.5,78,0.00,SCT,,0.01,244.0,WeatherDisplay:10.37,2013-01-09 20:21:00,
2013-01-09 12:26:00,53.1,46.1,30.01,ESE,105,0.2,3.5,77,0.00,SCT,,0.01,272.0,WeatherDisplay:10.37,2013-01-09 20:26:00,
2013-01-09 12:31:00,53.5,46.1,30.01,ESE,105,0.0,0.0,76,0.00,SCT,,0.01,243.0,WeatherDisplay:10.37,2013-01-09 20:31:00,
2013-01-09 12:37:00,54.3,46.5,30.00,North,355,3.0,3.0,75,0.00,BKN,,0.01,199.0,WeatherDisplay:10.37,2013-01-09 20:37:00,
2013-01-09 12:42:00,54.5,46.4,30.01,North,355,1.2,3.5,74,0.00,BKN,,0.01,186.0,WeatherDisplay:10.37,2013-01-09 20:42:00,
2013-01-09 12:47:00,54.4,46.3,30.00,North,355,0.0,1.1,74,0.00,SCT,,0.01,274.0,WeatherDisplay:10.37,2013-01-09 20:47:00,
2013-01-09 12:52:00,54.7,46.6,30.00,NW,315,5.4,7.0,74,0.00,BKN,,0.01,206.0,WeatherDisplay:10.37,2013-01-09 20:52:00,
2013-01-09 12:57:00,54.5,46.0,30.00,WNW,292,1.1,2.3,73,0.00,SCT,,0.01,239.0,WeatherDisplay:10.37,2013-01-09 20:57:00,
2013-01-09 13:02:00,54.6,46.5,29.99,WNW,292,0.4,0.0,74,0.00,BKN,,0.01,185.0,WeatherDisplay:10.37,2013-01-09 21:02:00,
2013-01-09 13:07:00,54.7,46.2,30.00,WNW,292,3.1,6.9,73,0.00,BKN,,0.01,190.0,WeatherDisplay:10.37,2013-01-09 21:07:00,
2013-01-09 13:12:00,54.6,46.5,29.99,SW,236,2.1,6.9,74,0.00,SCT,,0.01,244.0,WeatherDisplay:10.37,2013-01-09 21:12:00,
2013-01-09 13:17:00,54.8,46.7,29.99,WSW,244,2.1,2.3,74,0.00,SCT,,0.01,213.0,WeatherDisplay:10.37,2013-01-09 21:17:00,
2013-01-09 13:22:00,54.7,46.2,29.99,WNW,284,1.6,3.5,73,0.00,BKN,,0.01,186.0,WeatherDisplay:10.37,2013-01-09 21:22:00,
2013-01-09 13:27:00,54.7,46.6,30.00,WNW,282,4.6,8.0,74,0.00,BKN,,0.01,120.0,WeatherDisplay:10.37,2013-01-09 21:27:00,
2013-01-09 13:32:00,54.5,46.4,30.00,WNW,291,4.1,6.9,74,0.00,BKN,,0.01,84.0,WeatherDisplay:10.37,2013-01-09 21:32:00,
2013-01-09 13:37:00,54.1,46.3,29.99,WNW,288,0.8,3.5,75,0.00,BKN,,0.01,130.0,WeatherDisplay:10.37,2013-01-09 21:37:00,
2013-01-09 13:42:00,53.9,46.2,29.99,WSW,254,0.6,3.5,75,0.00,BKN,,0.01,178.0,WeatherDisplay:10.37,2013-01-09 21:42:00,
2013-01-09 13:47:00,53.9,46.5,29.98,WSW,254,1.9,3.5,76,0.00,BKN,,0.01,169.0,WeatherDisplay:10.37,2013-01-09 21:47:00,
2013-01-09 13:52:00,54.1,46.7,29.98,SW,218,4.6,5.8,76,0.00,BKN,,0.01,137.0,WeatherDisplay:10.37,2013-01-09 21:52:00,
2013-01-09 13:57:00,54.0,46.6,29.98,SW,218,1.7,3.5,76,0.00,BKN,,0.01,128.0,WeatherDisplay:10.37,2013-01-09 21:57:00,
2013-01-09 14:02:00,53.8,46.8,29.98,SW,215,1.8,3.5,77,0.00,BKN,,0.01,98.0,WeatherDisplay:10.37,2013-01-09 22:02:00,
2013-01-09 14:07:00,53.8,47.1,29.98,SW,216,0.1,1.1,78,0.00,BKN,,0.01,76.0,WeatherDisplay:10.37,2013-01-09 22:07:00,
2013-01-09 14:12:00,53.6,47.2,29.98,SW,215,0.5,2.3,79,0.00,BKN,,0.01,47.0,WeatherDisplay:10.37,2013-01-09 22:12:00,
2013-01-09 14:17:00,53.7,47.3,29.98,SW,216,0.9,2.0,79,0.00,BKN,,0.01,49.0,WeatherDisplay:10.37,2013-01-09 22:17:00,
2013-01-09 14:22:00,53.6,47.6,29.98,SW,216,0.0,0.0,80,0.00,BKN,,0.01,32.0,WeatherDisplay:10.37,2013-01-09 22:22:00,
2013-01-09 14:27:00,53.2,47.2,29.98,WNW,295,2.5,6.9,80,0.00,BKN,,0.01,28.0,WeatherDisplay:10.37,2013-01-09 22:27:00,
2013-01-09 14:32:00,52.7,46.7,29.99,NNE,14,2.2,4.6,80,0.00,BKN,,0.01,30.0,WeatherDisplay:10.37,2013-01-09 22:32:00,
2013-01-09 14:37:00,51.8,46.2,29.99,WNW,294,4.4,5.8,81,0.00,BKN,,0.01,33.0,WeatherDisplay:10.37,2013-01-09 22:37:00,
2013-01-09 14:42:00,51.0,45.4,29.99,WNW,290,2.8,5.8,81,0.00,BKN,,0.01,53.0,WeatherDisplay:10.37,2013-01-09 22:42:00,
2013-01-09 14:47:00,50.3,45.0,29.99,West,276,5.6,11.5,82,0.00,BKN,,0.01,65.0,WeatherDisplay:10.37,2013-01-09 22:47:00,
2013-01-09 14:52:00,49.7,44.1,29.99,WNW,303,3.1,6.9,81,0.00,BKN,,0.01,60.0,WeatherDisplay:10.37,2013-01-09 22:52:00,
2013-01-09 14:57:00,49.4,43.8,29.99,NW,317,3.3,12.7,81,0.00,BKN,,0.01,47.0,WeatherDisplay:10.37,2013-01-09 22:57:00,
2013-01-09 15:02:00,49.2,43.6,29.99,West,279,7.4,10.4,81,0.00,BKN,,0.01,46.0,WeatherDisplay:10.37,2013-01-09 23:02:00,
2013-01-09 15:07:00,49.0,43.7,29.99,West,277,2.5,11.5,82,0.00,BKN,,0.01,42.0,WeatherDisplay:10.37,2013-01-09 23:07:00,
2013-01-09 15:12:00,48.8,43.2,29.99,West,266,4.0,6.9,81,0.00,BKN,,0.01,47.0,WeatherDisplay:10.37,2013-01-09 23:12:00,
2013-01-09 15:17:00,48.5,42.9,29.99,West,273,6.9,6.9,81,0.00,BKN,,0.01,54.0,WeatherDisplay:10.37,2013-01-09 23:17:00,
2013-01-09 15:22:00,48.5,42.6,29.99,WSW,253,2.7,11.5,80,0.00,BKN,,0.01,67.0,WeatherDisplay:10.37,2013-01-09 23:22:00,
2013-01-09 15:27:00,48.5,42.3,29.99,WNW,290,8.0,9.2,79,0.00,BKN,,0.01,72.0,WeatherDisplay:10.37,2013-01-09 23:27:00,
2013-01-09 15:32:00,48.6,42.0,29.99,WNW,298,9.7,12.7,78,0.00,BKN,,0.01,90.0,WeatherDisplay:10.37,2013-01-09 23:32:00,
2013-01-09 15:37:00,48.8,41.9,29.99,WNW,300,5.6,11.5,77,0.00,BKN,,0.01,72.0,WeatherDisplay:10.37,2013-01-09 23:37:00,
2013-01-09 15:42:00,48.8,41.9,29.99,West,272,3.6,11.5,77,0.00,BKN,,0.01,62.0,WeatherDisplay:10.37,2013-01-09 23:42:00,
2013-01-09 15:47:00,48.9,41.7,29.99,West,280,4.8,4.8,76,0.00,BKN,,0.01,113.0,WeatherDisplay:10.37,2013-01-09 23:47:00,
2013-01-09 15:52:00,48.9,41.7,29.99,WNW,290,5.5,10.4,76,0.00,CLR,,0.01,204.0,WeatherDisplay:10.37,2013-01-09 23:52:00,
2013-01-09 15:57:00,48.9,41.3,29.99,West,259,3.5,9.2,75,0.00,CLR,,0.01,158.0,WeatherDisplay:10.37,2013-01-09 23:57:00,
2013-01-09 16:02:00,48.8,41.2,29.99,West,274,7.1,13.8,75,0.00,CLR,,0.01,132.0,WeatherDisplay:10.37,2013-01-10 00:02:00,
2013-01-09 16:07:00,48.6,40.7,29.98,West,269,9.8,14.0,74,0.00,CLR,,0.01,107.0,WeatherDisplay:10.37,2013-01-10 00:07:00,
2013-01-09 16:12:00,48.5,40.6,29.98,NNW,333,4.1,12.7,74,0.00,CLR,,0.01,104.0,WeatherDisplay:10.37,2013-01-10 00:12:00,
2013-01-09 16:17:00,48.4,40.1,29.98,NW,315,5.4,12.0,73,0.00,CLR,,0.01,74.0,WeatherDisplay:10.37,2013-01-10 00:17:00,
2013-01-09 16:22:00,48.3,40.0,29.98,NNE,27,7.0,13.8,73,0.00,FEW,,0.01,76.0,WeatherDisplay:10.37,2013-01-10 00:22:00,
2013-01-09 16:27:00,48.3,39.7,29.98,West,279,7.4,11.5,72,0.00,CLR,,0.01,76.0,WeatherDisplay:10.37,2013-01-10 00:27:00,
2013-01-09 16:32:00,48.2,39.6,29.98,WSW,241,5.3,9.2,72,0.00,SCT,,0.01,30.0,WeatherDisplay:10.37,2013-01-10 00:32:00,
2013-01-09 16:37:00,48.1,39.1,29.98,West,261,4.7,17.3,71,0.00,BKN,,0.01,26.0,WeatherDisplay:10.37,2013-01-10 00:37:00,
2013-01-09 16:42:00,48.0,39.0,29.97,NW,312,2.2,11.5,71,0.00,FEW,,0.01,30.0,WeatherDisplay:10.37,2013-01-10 00:42:00,
2013-01-09 16:47:00,47.9,38.6,29.98,WNW,295,5.0,20.7,70,0.00,FEW,,0.01,25.0,WeatherDisplay:10.37,2013-01-10 00:47:00,
2013-01-09 16:52:00,47.9,38.6,29.98,WNW,298,2.5,4.6,70,0.00,CLR,,0.01,21.0,WeatherDisplay:10.37,2013-01-10 00:52:00,
2013-01-09 16:57:00,47.9,38.6,29.98,West,275,6.0,9.2,70,0.00,CLR,,0.01,16.0,WeatherDisplay:10.37,2013-01-10 00:57:00,
2013-01-09 17:02:00,47.8,38.5,29.98,NW,322,3.3,3.5,70,0.00,CLR,,0.01,9.0,WeatherDisplay:10.37,2013-01-10 01:02:00,
2013-01-09 17:07:00,47.7,38.4,29.97,West,271,3.3,5.8,70,0.00,,,0.01,0.0,WeatherDisplay:10.37,2013-01-10 01:07:00,
2013-01-09 17:12:00,47.6,38.3,29.97,NNE,33,4.2,8.0,70,0.00,,,0.01,0.0,WeatherDisplay:10.37,2013-01-10 01:12:00,
2013-01-09 17:17:00,47.6,38.3,29.97,NW,305,5.6,11.5,70,0.00,,,0.01,0.0,WeatherDisplay:10.37,2013-01-10 01:17:00,
2013-01-09 17:22:00,47.6,38.3,29.97,North,360,2.9,9.2,70,0.00,,,0.01,0.0,WeatherDisplay:10.37,2013-01-10 01:22:00,
2013-01-09 17:27:00,47.5,37.8,29.97,West,268,4.3,10.4,69,0.00,,,0.01,0.0,WeatherDisplay:10.37,2013-01-10 01:27:00,
2013-01-09 17:32:00,47.4,37.7,29.97,WNW,286,2.1,6.9,69,0.00,,,0.01,0.0,WeatherDisplay:10.37,2013-01-10 01:32:00,
2013-01-09 17:37:00,47.4,37.7,29.97,WNW,299,3.9,5.8,69,0.00,,,0.01,0.0,WeatherDisplay:10.37,2013-01-10 01:37:00,
2013-01-09 17:42:00,47.4,37.4,29.97,West,272,2.5,4.6,68,0.00,,,0.01,0.0,WeatherDisplay:10.37,2013-01-10 01:42:00,
2013-01-09 17:47:00,47.4,37.4,29.98,West,277,2.3,2.3,68,0.00,,,0.01,0.0,WeatherDisplay:10.37,2013-01-10 01:47:00,
2013-01-09 17:52:00,47.3,37.3,29.98,West,280,5.2,11.5,68,0.00,,,0.01,0.0,WeatherDisplay:10.37,2013-01-10 01:52:00,
2013-01-09 17:57:00,47.2,37.2,29.98,NNW,341,6.0,9.2,68,0.00,,,0.01,0.0,WeatherDisplay:10.37,2013-01-10 01:57:00,
2013-01-09 18:02:00,47.1,37.1,29.99,West,269,2.9,6.9,68,0.00,,,0.01,0.0,WeatherDisplay:10.37,2013-01-10 02:02:00,
2013-01-09 18:07:00,46.9,36.9,29.98,WNW,286,4.4,6.9,68,0.00,,,0.01,0.0,WeatherDisplay:10.37,2013-01-10 02:07:00,
2013-01-09 18:12:00,46.8,36.8,29.99,WNW,287,5.3,8.1,68,0.00,,,0.01,0.0,WeatherDisplay:10.37,2013-01-10 02:12:00,
2013-01-09 18:17:00,46.7,36.7,29.99,SW,232,6.2,16.1,68,0.00,,,0.01,0.0,WeatherDisplay:10.37,2013-01-10 02:17:00,
2013-01-09 18:22:00,46.6,36.6,29.99,WNW,286,2.5,10.4,68,0.00,,,0.01,0.0,WeatherDisplay:10.37,2013-01-10 02:22:00,
2013-01-09 18:27:00,46.5,36.5,29.99,West,273,2.3,5.8,68,0.00,,,0.01,0.0,WeatherDisplay:10.37,2013-01-10 02:27:00,
2013-01-09 18:32:00,46.3,36.3,29.99,WNW,298,2.9,5.8,68,0.00,,,0.01,0.0,WeatherDisplay:10.37,2013-01-10 02:32:00,
2013-01-09 18:37:00,46.1,36.1,29.99,West,281,3.5,8.1,68,0.00,,,0.01,0.0,WeatherDisplay:10.37,2013-01-10 02:37:00,
2013-01-09 18:42:00,46.1,36.1,30.00,WNW,291,4.7,8.1,68,0.00,,,0.01,0.0,WeatherDisplay:10.37,2013-01-10 02:42:00,
2013-01-09 18:47:00,45.9,35.6,30.00,NNW,343,1.2,5.8,67,0.00,,,0.01,0.0,WeatherDisplay:10.37,2013-01-10 02:47:00,
2013-01-09 18:52:00,45.8,35.8,30.00,NNW,348,2.6,3.5,68,0.00,,,0.01,0.0,WeatherDisplay:10.37,2013-01-10 02:52:00,
2013-01-09 18:57:00,45.8,35.5,30.00,WNW,293,2.5,6.9,67,0.00,,,0.01,0.0,WeatherDisplay:10.37,2013-01-10 02:57:00,
2013-01-09 19:02:00,45.7,35.4,30.00,West,273,1.8,3.5,67,0.00,CLR,,0.01,0.0,WeatherDisplay:10.37,2013-01-10 03:02:00,
2013-01-09 19:07:00,45.7,35.4,30.00,West,276,2.6,10.4,67,0.00,CLR,,0.01,0.0,WeatherDisplay:10.37,2013-01-10 03:07:00,
2013-01-09 19:12:00,45.7,35.7,30.00,NW,314,1.8,5.8,68,0.00,CLR,,0.01,0.0,WeatherDisplay:10.37,2013-01-10 03:12:00,
2013-01-09 19:17:00,45.7,35.7,30.00,West,275,3.4,11.5,68,0.00,CLR,,0.01,0.0,WeatherDisplay:10.37,2013-01-10 03:17:00,
2013-01-09 19:22:00,45.6,35.6,30.01,West,275,4.1,4.6,68,0.00,CLR,,0.01,0.0,WeatherDisplay:10.37,2013-01-10 03:22:00,
2013-01-09 19:27:00,45.6,36.0,30.01,NW,317,5.4,6.9,69,0.00,CLR,,0.01,0.0,WeatherDisplay:10.37,2013-01-10 03:27:00,
2013-01-09 19:32:00,45.6,36.0,30.01,NE,48,4.1,8.1,69,0.00,CLR,,0.01,0.0,WeatherDisplay:10.37,2013-01-10 03:32:00,
2013-01-09 19:37:00,45.6,36.0,30.01,West,281,3.8,5.8,69,0.00,CLR,,0.01,0.0,WeatherDisplay:10.37,2013-01-10 03:37:00,
2013-01-09 19:42:00,45.6,36.0,30.01,WNW,295,3.5,8.1,69,0.00,CLR,,0.01,0.0,WeatherDisplay:10.37,2013-01-10 03:42:00,
2013-01-09 19:47:00,45.6,35.6,30.02,West,275,1.6,5.8,68,0.00,CLR,,0.01,0.0,WeatherDisplay:10.37,2013-01-10 03:47:00,
2013-01-09 19:52:00,45.5,35.5,30.02,West,273,5.9,11.5,68,0.00,CLR,,0.01,0.0,WeatherDisplay:10.37,2013-01-10 03:52:00,
2013-01-09 19:57:00,45.4,35.5,30.02,WNW,292,2.1,4.6,68,0.00,CLR,,0.01,0.0,WeatherDisplay:10.37,2013-01-10 03:57:00,
2013-01-09 20:02:00,45.4,35.8,30.02,West,280,2.4,6.9,69,0.00,CLR,,0.01,0.0,WeatherDisplay:10.37,2013-01-10 04:02:00,
2013-01-09 20:07:00,45.3,35.7,30.02,West,280,2.6,15.0,69,0.00,CLR,,0.01,0.0,WeatherDisplay:10.37,2013-01-10 04:07:00,
2013-01-09 20:12:00,45.4,35.8,30.02,WNW,282,5.4,9.2,69,0.00,CLR,,0.01,0.0,WeatherDisplay:10.37,2013-01-10 04:12:00,
2013-01-09 20:17:00,45.3,36.1,30.02,West,272,3.5,5.8,70,0.00,CLR,,0.01,0.0,WeatherDisplay:10.37,2013-01-10 04:17:00,
2013-01-09 20:22:00,45.3,36.1,30.03,West,260,6.7,13.8,70,0.00,CLR,,0.01,0.0,WeatherDisplay:10.37,2013-01-10 04:22:00,
2013-01-09 20:27:00,45.3,35.7,30.03,WNW,287,1.4,3.5,69,0.00,CLR,,0.01,0.0,WeatherDisplay:10.37,2013-01-10 04:27:00,
2013-01-09 20:32:00,45.3,35.7,30.03,West,270,3.8,6.9,69,0.00,CLR,,0.01,0.0,WeatherDisplay:10.37,2013-01-10 04:32:00,
2013-01-09 20:37:00,45.1,35.5,30.03,WSW,249,4.8,12.7,69,0.00,CLR,,0.01,0.0,WeatherDisplay:10.37,2013-01-10 04:37:00,
2013-01-09 20:42:00,45.0,35.1,30.03,West,273,7.1,10.4,68,0.00,CLR,,0.01,0.0,WeatherDisplay:10.37,2013-01-10 04:42:00,
2013-01-09 20:47:00,45.0,34.7,30.03,WNW,302,5.0,6.9,67,0.00,CLR,,0.01,0.0,WeatherDisplay:10.37,2013-01-10 04:47:00,
2013-01-09 20:52:00,45.0,34.7,30.03,West,276,2.3,4.6,67,0.00,CLR,,0.01,0.0,WeatherDisplay:10.37,2013-01-10 04:52:00,
2013-01-09 20:57:00,45.0,34.7,30.03,West,277,3.4,3.5,67,0.00,CLR,,0.01,0.0,WeatherDisplay:10.37,2013-01-10 04:57:00,
2013-01-09 21:00:00,44.9,34.6,30.03,North,5,5.6,8.1,67,0.00,CLR,,0.01,0.0,WeatherDisplay:10.37,2013-01-10 05:00:00,
2013-01-09 21:03:00,44.9,34.6,30.04,WNW,299,3.1,9.2,67,0.00,CLR,,0.01,0.0,WeatherDisplay:10.37,2013-01-10 05:03:00,
2013-01-09 21:08:00,44.9,34.6,30.04,WNW,292,1.7,8.1,67,0.00,CLR,,0.01,0.0,WeatherDisplay:10.37,2013-01-10 05:08:00,
2013-01-09 21:11:00,44.8,34.5,30.04,West,275,6.6,8.1,67,0.00,CLR,,0.01,0.0,WeatherDisplay:10.37,2013-01-10 05:11:00,
2013-01-09 21:16:00,44.8,34.5,30.04,West,280,1.6,3.5,67,0.00,CLR,,0.01,0.0,WeatherDisplay:10.37,2013-01-10 05:16:00,
2013-01-09 21:21:00,44.7,34.8,30.04,SW,229,3.4,6.9,68,0.00,CLR,,0.01,0.0,WeatherDisplay:10.37,2013-01-10 05:21:00,
2013-01-09 21:26:00,44.6,34.7,30.04,WNW,282,2.5,5.8,68,0.00,CLR,,0.01,0.0,WeatherDisplay:10.37,2013-01-10 05:26:00,
2013-01-09 21:31:00,44.6,34.7,30.04,WNW,297,2.3,9.2,68,0.00,CLR,,0.01,0.0,WeatherDisplay:10.37,2013-01-10 05:31:00,
2013-01-09 21:36:00,44.6,35.1,30.05,West,277,4.1,11.5,69,0.00,CLR,,0.01,0.0,WeatherDisplay:10.37,2013-01-10 05:36:00,
2013-01-09 21:41:00,44.7,35.1,30.05,WNW,290,8.4,16.1,69,0.00,CLR,,0.01,0.0,WeatherDisplay:10.37,2013-01-10 05:41:00,
2013-01-09 21:46:00,44.6,34.7,30.05,West,265,3.2,6.9,68,0.00,CLR,,0.01,0.0,WeatherDisplay:10.37,2013-01-10 05:46:00,
2013-01-09 21:51:00,44.3,34.4,30.05,WNW,284,2.7,5.8,68,0.00,CLR,,0.01,0.0,WeatherDisplay:10.37,2013-01-10 05:51:00,
2013-01-09 21:56:00,44.1,34.2,30.05,West,272,3.8,11.5,68,0.00,CLR,,0.01,0.0,WeatherDisplay:10.37,2013-01-10 05:56:00,
2013-01-09 22:01:00,44.0,34.1,30.05,West,270,4.7,10.4,68,0.00,CLR,,0.01,0.0,WeatherDisplay:10.37,2013-01-10 06:01:00,
2013-01-09 22:05:00,43.9,33.6,30.05,WNW,284,1.8,4.6,67,0.00,CLR,,0.01,0.0,WeatherDisplay:10.37,2013-01-10 06:05:00,
2013-01-09 22:10:00,43.8,33.9,30.05,West,273,1.7,3.5,68,0.00,CLR,,0.01,0.0,WeatherDisplay:10.37,2013-01-10 06:10:00,
2013-01-09 22:15:00,43.6,33.7,30.05,WNW,297,5.3,16.1,68,0.00,CLR,,0.01,0.0,WeatherDisplay:10.37,2013-01-10 06:15:00,
2013-01-09 22:20:00,43.6,34.1,30.05,NNW,338,2.8,9.2,69,0.00,CLR,,0.01,0.0,WeatherDisplay:10.37,2013-01-10 06:20:00,
2013-01-09 22:25:00,43.6,34.5,30.05,West,280,5.1,8.1,70,0.00,CLR,,0.01,0.0,WeatherDisplay:10.37,2013-01-10 06:25:00,
2013-01-09 22:30:00,43.7,34.6,30.05,West,277,2.9,11.5,70,0.00,CLR,,0.01,0.0,WeatherDisplay:10.37,2013-01-10 06:30:00,
2013-01-09 22:35:00,43.6,34.5,30.05,WNW,282,1.0,6.9,70,0.00,CLR,,0.01,0.0,WeatherDisplay:10.37,2013-01-10 06:35:00,
2013-01-09 22:40:00,43.6,34.8,30.05,West,280,1.5,4.6,71,0.00,CLR,,0.01,0.0,WeatherDisplay:10.37,2013-01-10 06:40:00,
2013-01-09 22:45:00,43.6,34.8,30.05,WNW,286,0.2,3.5,71,0.00,CLR,,0.01,0.0,WeatherDisplay:10.37,2013-01-10 06:45:00,
2013-01-09 22:50:00,43.6,35.2,30.05,West,263,2.5,4.6,72,0.00,CLR,,0.01,0.0,WeatherDisplay:10.37,2013-01-10 06:50:00,
2013-01-09 22:55:00,43.5,34.7,30.05,WNW,286,2.9,8.1,71,0.00,CLR,,0.01,0.0,WeatherDisplay:10.37,2013-01-10 06:55:00,
2013-01-09 23:00:00,43.5,34.7,30.05,NE,52,1.0,9.2,71,0.00,CLR,,0.01,0.0,WeatherDisplay:10.37,2013-01-10 07:00:00,
2013-01-09 23:05:00,43.5,34.7,30.06,West,269,2.1,3.5,71,0.00,,,0.01,0.0,WeatherDisplay:10.37,2013-01-10 07:05:00,
2013-01-09 23:10:00,43.6,34.8,30.05,WNW,287,3.5,11.5,71,0.00,,,0.01,0.0,WeatherDisplay:10.37,2013-01-10 07:10:00,
2013-01-09 23:15:00,43.7,34.9,30.05,NNE,29,2.8,4.6,71,0.00,,,0.01,0.0,WeatherDisplay:10.37,2013-01-10 07:15:00,
2013-01-09 23:20:00,43.7,34.9,30.05,WNW,286,0.3,1.1,71,0.00,,,0.01,0.0,WeatherDisplay:10.37,2013-01-10 07:20:00,
2013-01-09 23:25:00,43.6,35.2,30.06,West,265,3.1,4.6,72,0.00,,,0.01,0.0,WeatherDisplay:10.37,2013-01-10 07:25:00,
2013-01-09 23:30:00,43.6,35.2,30.06,WNW,288,2.6,3.5,72,0.00,,,0.01,0.0,WeatherDisplay:10.37,2013-01-10 07:30:00,
2013-01-09 23:35:00,43.5,35.1,30.06,NNW,342,3.6,4.6,72,0.00,,,0.01,0.0,WeatherDisplay:10.37,2013-01-10 07:35:00,
2013-01-09 23:40:00,43.4,35.0,30.06,WNW,290,3.1,5.8,72,0.00,,,0.01,0.0,WeatherDisplay:10.37,2013-01-10 07:40:00,
2013-01-09 23:45:00,43.2,34.8,30.06,North,9,1.6,3.5,72,0.00,,,0.01,0.0,WeatherDisplay:10.37,2013-01-10 07:45:00,
2013-01-09 23:50:00,43.2,34.4,30.06,WSW,245,3.6,5.8,71,0.00,,,0.01,0.0,WeatherDisplay:10.37,2013-01-10 07:50:00,
2013-01-09 23:55:00,43.1,34.0,30.06,North,5,4.1,5.8,70,0.00,,,0.01,0.0,WeatherDisplay:10.37,2013-01-10 07:55:00,